Location: La Oliva
(42.2466°N, 2.9955°E)
Time: 06:37:21
(UTC+00:00)

Meteor 2-3 Rocket - Pass Details

Date: 22 April 2021
Orbit: 841 x 886 km, 81.2° (Epoch: 07 May)

Event Time Altitude Azimuth Distance (km) Brightness Sun altitude
Rises 20:06:47 0° 354° (N) 3,480 7.5 -15.7°
Reaches altitude 10° 20:09:20 10° 359° (N) 2,531 6.7 -16.1°
Maximum altitude 20:14:56 53° 76° (ENE) 1,061 4.0 -16.9°
Enters shadow 20:17:47 28° 140° (SE) 1,573 4.5 -17.3°
